Regional Weather Roundup
Issued by NWS Green Bay, WI

Home | Current Version | Previous Version | Graphics & Text | Print | Product List | Glossary Off
Versions: 1 2 3 4 5 6 7 8 9 10 11 12 13 14 15 16 17 18 19 20 21 22 23 24 25 26 27 28 29 30 31 32 33 34 35 36 37 38 39 40 41 42 43 44 45 46 47 48 49 50

000
ASUS43 KGRB 060859
RWRGRB

NORTH-CENTRAL AND NORTHEAST WISCONSIN REGIONAL WEATHER ROUNDUP
NATIONAL WEATHER SERVICE GREEN BAY WI
300 AM CST FRI MAR 06 2015

WIZ005-009-010>012-018-019-061000-
NORTH CENTRAL WISCONSIN

CITY           SKY/WX    TMP DP  RH WIND       PRES   REMARKS
IRONWOOD       CLEAR      7   0  72 SW10G18   30.08F WCI  -8
MANITOWISH WTR NOT AVBL
ARBOR VITAE    NOT AVBL
EAGLE RIVER    NOT AVBL
LAND O LAKES   NOT AVBL
RHINELANDER    PTCLDY    -1  -8  72 SW12      30.17F WCI -18
PHILLIPS       CLEAR     -1  -6  81 S6        30.16F WCI -13
ANTIGO         NOT AVBL
TOMAHAWK       NOT AVBL
MERRILL        NOT AVBL
$$

WIZ013-073-061000-
NORTHEAST WISCONSIN

CITY           SKY/WX    TMP DP  RH WIND       PRES   REMARKS
IRON MOUNTAIN  PTCLDY     1 -10  60 CALM      30.20F
MARINETTE      PTCLDY     1  -8  66 SW6       30.30F WCI -10
$$

WIZ017-030-035>037-045-061000-
CENTRAL WISCONSIN

CITY           SKY/WX    TMP DP  RH WIND       PRES   REMARKS
MEDFORD        NOT AVBL
WAUSAU         PTCLDY    -1  -7  75 SW3       30.25F
MOSINEE        NOT AVBL
MARSHFIELD     PTCLDY    -4  -9  79 S7        30.25F WCI -18
WISC RAPIDS    PTCLDY    -4 -10  75 S3        30.31F
STEVENS POINT  NOT AVBL
WAUPACA        NOT AVBL
SHAWANO        NOT AVBL
CLINTONVILLE   PTCLDY     0  -8  71 SW5       30.32F WCI -10
$$

WIZ038-039-048-051-061000-
FOX VALLEY

CITY           SKY/WX    TMP DP  RH WIND       PRES   REMARKS
NWS GREEN BAY  PTCLDY     2  -6  69 S9        30.35F WCI -13
APPLETON       NOT AVBL
OSHKOSH        PTCLDY     1  -7  68 S6        30.35F WCI -10
FOND DU LAC    PTCLDY     3  -6  66 S8        30.37F WCI -10
$$

WIZ022-050-052-061000-
EAST CENTRAL WISCONSIN

CITY           SKY/WX    TMP DP  RH WIND       PRES   REMARKS
STURGEON BAY   PTCLDY     7  -8  51 SW12      30.33F WCI  -9
MANITOWOC      NOT AVBL
SHEBOYGAN      PTCLDY    -1  -8  72 SW9       30.38F WCI -16
$$

LMZ563-521-522-541>543-061000-
LAKESHORE

STATION/POSITION TIME  TEMP    WIND        PRES    VSBY  WAVE
                       AIR SEA DIR/SP/G                  HT/PER
                 (UTC) (F)     (DEG/KT/KT) (MB)    (MI)  (FT/S)
SHEBOYGAN LKSHOR 0800    7     230/ 10/ 13 1031.8F
KEWAUNEE LKSHORE 0800    4     230/  8/ 11 1027.3F
NORTHPORT PIER   0800    7     210/  3/ 11 1026.8F
SISTER BAY LKSHO 0800    7     250/ 12/ 15   N/A
CHAMBERS ISLAND  0800    0     170/  5/  9 1026.8F
MENOMINEE LKSHOR 0800    4     210/ 10     1027.5F
$$


USA.gov is the U.S. government's official web portal to all federal, state and local government web resources and services.